Bogalusa, LA

3:54 AM CDT on July 27, 2017 (GMT -0500)
Carr Memorial

Weather History for KBXA - April, 2013

Change the Weather History Date:

Monday, April 8, 2013

  Actual Average Record
Temperature  
Mean Temperature 67 °F -  
Max Temperature 83 °F 76 °F 88 °F (2015)
Min Temperature 52 °F 53 °F 41 °F (2017)
Cooling Degree Days 2    
Growing Degree Days 17 (Base 50)    
Moisture  
Dew Point 60 °F    
Average Humidity 75    
Maximum Humidity 99    
Minimum Humidity 44    
Precipitation  
Precipitation 0.00 in - - ()
Sea Level Pressure  
Sea Level Pressure 30.01 in    
Wind  
Wind Speed 5 mph (SSE)    
Max Wind Speed 16 mph    
Max Gust Speed 24 mph    
Visibility 8 miles    
Events Fog    
Averages and records for this station are not official NWS values.
T = Trace of Precipitation, MM = Missing Value Source: NWS Daily Summary

Daily Weather History Graph

Daily Weather History Graph

Search for Another Location

Airport or City:

Trip Planner

Search our weather history database for the weather conditions in past years. The results will help you decide how hot, cold, wet, or windy it might be!

Date:

Astronomy

Apr. 08, 2013 Rise Set
Actual Time 6:39 AM CDT 7:23 PM CDT
Civil Twilight 6:15 AM CDT 7:47 PM CDT
Nautical Twilight 5:46 AM CDT 8:16 PM CDT
Astronomical Twilight 5:16 AM CDT 8:46 PM CDT
Moon 5:23 AM CDT (4/8) 6:01 PM CDT (4/8)
Length of Visible Light 13h 32m
Length of Day
12h 43m
Waning Crescent, 3% of the Moon is Illuminated
Apr 8
Waning Crescent
Apr 10
New
Apr 18
First Quarter
Apr 25
Full
May 2
Last Quarter

Hourly Weather History & Observations

Time (CDT) Temp. Heat Index Dew Point Humidity Pressure Visibility Wind Dir Wind Speed Gust Speed Precip Events Conditions
12:15 AM 61.0 °F - 60.1 °F 97% 30.03 in 10.0 mi Calm Calm - N/A   Clear
12:35 AM 60.8 °F - 59.9 °F 97% 30.02 in 10.0 mi SSE 3.5 mph - N/A   Clear
12:55 AM 60.6 °F - 59.9 °F 97% 30.02 in 10.0 mi Calm Calm - N/A   Clear
1:35 AM 59.2 °F - 58.5 °F 97% 30.01 in 1.8 mi Calm Calm - N/A   Mist
1:55 AM 56.7 °F - 56.3 °F 99% 30.00 in 10.0 mi Calm Calm - N/A   Clear
2:15 AM 56.1 °F - 55.6 °F 98% 30.00 in 10.0 mi Calm Calm - N/A   Clear
2:55 AM 53.2 °F - 52.7 °F 98% 29.99 in 5.0 mi Calm Calm - N/A   Clear
3:15 AM 53.4 °F - 52.9 °F 98% 29.99 in 0.8 mi Calm Calm - N/A   Overcast
3:35 AM 52.7 °F - 52.2 °F 98% 29.99 in 1.2 mi Calm Calm - N/A   Overcast
3:55 AM 52.7 °F - 52.2 °F 98% 29.98 in 0.2 mi Calm Calm - N/A Fog Fog
4:15 AM 52.7 °F - 52.0 °F 97% 29.98 in 0.2 mi Calm Calm - N/A Fog Fog
4:35 AM 52.7 °F - 52.0 °F 97% 29.98 in 0.2 mi North 3.5 mph - N/A Fog Fog
4:55 AM 53.1 °F - 52.5 °F 98% 29.99 in 0.2 mi North 3.5 mph - N/A Fog Fog
5:15 AM 54.1 °F - 53.6 °F 98% 29.99 in 0.5 mi Calm Calm - N/A Fog Fog
5:35 AM 55.0 °F - 54.5 °F 98% 30.00 in 0.2 mi Calm Calm - N/A Fog Fog
5:55 AM 55.6 °F - 54.7 °F 97% 30.00 in 0.2 mi Calm Calm - N/A Fog Fog
6:15 AM 55.9 °F - 55.2 °F 97% 30.00 in 0.2 mi North - - N/A Fog Fog
6:35 AM 56.5 °F - 55.6 °F 97% 30.00 in 0.2 mi Calm Calm - N/A Fog Fog
6:55 AM 57.4 °F - 56.5 °F 97% 30.00 in 0.2 mi North - - N/A Fog Fog
7:15 AM 57.9 °F - 57.0 °F 97% 30.01 in 0.2 mi Calm Calm - N/A Fog Fog
7:35 AM 58.5 °F - 57.6 °F 97% 30.02 in 0.2 mi Calm Calm - N/A Fog Fog
8:15 AM 59.7 °F - 58.8 °F 97% 30.03 in 0.2 mi Calm Calm - N/A Fog Fog
8:35 AM 61.7 °F - 60.8 °F 97% 30.03 in 3.0 mi Calm Calm - N/A   Overcast
9:15 AM 66.0 °F - 65.3 °F 98% 30.03 in 10.0 mi SSE 3.5 mph - N/A   Mostly Cloudy
9:55 AM 67.8 °F - 67.5 °F 99% 30.03 in 10.0 mi SSE 8.1 mph - N/A   Scattered Clouds
10:15 AM - - - N/A% - - North - - N/A   Unknown
10:35 AM 76.8 °F - 62.2 °F 61% 30.04 in 10.0 mi SSE 13.8 mph 18.4 mph N/A   Unknown
10:55 AM 76.8 °F - 61.7 °F 59% 30.05 in 10.0 mi SSE 16.1 mph 21.9 mph N/A   Unknown
11:15 AM 78.6 °F - 61.2 °F 55% 30.05 in 10.0 mi South 16.1 mph 21.9 mph N/A   Mostly Cloudy
11:35 AM 77.4 °F - 60.4 °F 56% 30.05 in 10.0 mi South 11.5 mph 19.6 mph N/A   Mostly Cloudy
11:55 AM 80.1 °F 81.1 °F 61.0 °F 52% 30.05 in 10.0 mi South 11.5 mph 18.4 mph N/A   Mostly Cloudy
12:15 PM 80.6 °F 81.1 °F 59.2 °F 48% 30.04 in 10.0 mi South 11.5 mph 18.4 mph N/A   Scattered Clouds
12:35 PM 80.6 °F 80.9 °F 58.3 °F 46% 30.04 in 10.0 mi South 11.5 mph 20.7 mph N/A   Clear
12:55 PM 81.7 °F 81.6 °F 57.6 °F 44% 30.04 in 10.0 mi South 12.7 mph 20.7 mph N/A   Unknown
1:15 PM 81.3 °F 81.4 °F 58.1 °F 45% 30.03 in 10.0 mi South 12.7 mph 17.3 mph N/A   Unknown
1:35 PM 82.0 °F 82.0 °F 58.3 °F 44% 30.03 in 10.0 mi South 12.7 mph 20.7 mph N/A   Unknown
1:55 PM 82.2 °F 82.3 °F 58.8 °F 45% 30.02 in 10.0 mi South 11.5 mph 20.7 mph N/A   Unknown
2:15 PM 82.0 °F 82.1 °F 58.5 °F 45% 30.02 in 10.0 mi South 12.7 mph 19.6 mph N/A   Unknown
2:35 PM 80.8 °F 81.1 °F 58.5 °F 46% 30.01 in 10.0 mi South 13.8 mph 19.6 mph N/A   Unknown
2:55 PM 82.2 °F 82.3 °F 58.8 °F 45% 30.00 in 10.0 mi SSW 15.0 mph 24.2 mph N/A   Unknown
3:15 PM 81.9 °F 82.1 °F 59.4 °F 46% 29.99 in 10.0 mi South 10.4 mph 19.6 mph N/A   Mostly Cloudy
3:35 PM 81.9 °F 81.9 °F 58.8 °F 45% 29.98 in 10.0 mi South 15.0 mph 19.6 mph N/A   Scattered Clouds
3:55 PM 81.9 °F 82.2 °F 59.7 °F 47% 29.98 in 10.0 mi South 13.8 mph 18.4 mph N/A   Clear
4:15 PM 81.1 °F 81.8 °F 60.4 °F 49% 29.98 in 10.0 mi South 12.7 mph 19.6 mph N/A   Mostly Cloudy
4:35 PM 81.0 °F 81.6 °F 60.3 °F 49% 29.98 in 10.0 mi South 16.1 mph 21.9 mph N/A   Scattered Clouds
4:55 PM 79.7 °F - 61.2 °F 53% 29.98 in 10.0 mi South 9.2 mph 17.3 mph N/A   Mostly Cloudy
5:15 PM 79.7 °F - 61.3 °F 53% 29.99 in 10.0 mi SSE 9.2 mph - N/A   Mostly Cloudy
5:35 PM 78.8 °F - 61.9 °F 56% 29.99 in 10.0 mi SE 12.7 mph - N/A   Mostly Cloudy
5:55 PM 78.3 °F - 63.0 °F 59% 30.00 in 10.0 mi SE 13.8 mph 19.6 mph N/A   Mostly Cloudy
6:15 PM 77.5 °F - 63.3 °F 61% 30.00 in 10.0 mi SSE 12.7 mph 19.6 mph N/A   Overcast
6:35 PM 77.4 °F - 63.5 °F 62% 30.00 in 10.0 mi SE 12.7 mph 19.6 mph N/A   Mostly Cloudy
6:55 PM 76.1 °F - 63.5 °F 65% 30.00 in 10.0 mi SSE 9.2 mph - N/A   Scattered Clouds
7:15 PM 75.0 °F - 64.0 °F 69% 30.00 in 10.0 mi SSE 10.4 mph - N/A   Clear
7:35 PM 74.3 °F - 64.4 °F 71% 30.00 in 10.0 mi SSE 8.1 mph - N/A   Clear
7:55 PM 73.6 °F - 64.8 °F 74% 30.00 in 10.0 mi SSE 6.9 mph - N/A   Unknown
8:15 PM 73.4 °F - 65.3 °F 76% 30.00 in 10.0 mi SE 8.1 mph - N/A   Unknown
8:35 PM 73.0 °F - 65.8 °F 78% 30.00 in 10.0 mi SSE 9.2 mph - N/A   Unknown
8:55 PM 72.5 °F - 65.8 °F 80% 30.00 in 10.0 mi SE 11.5 mph - N/A   Unknown
9:15 PM 72.5 °F - 66.2 °F 81% 30.00 in 10.0 mi SSE 11.5 mph - N/A   Unknown
9:35 PM 72.5 °F - 66.2 °F 81% 30.00 in 10.0 mi SSE 6.9 mph - N/A   Unknown
9:55 PM 72.5 °F - 66.2 °F 81% 30.00 in 10.0 mi SSE 5.8 mph - N/A   Unknown
10:15 PM 72.0 °F - 66.0 °F 81% 30.00 in 10.0 mi SSE 6.9 mph - N/A   Unknown
10:35 PM 71.6 °F - 65.8 °F 82% 30.00 in 10.0 mi SE 8.1 mph - N/A   Unknown
10:55 PM 71.4 °F - 65.8 °F 82% 30.00 in 10.0 mi SSE 9.2 mph - N/A   Unknown
11:15 PM 71.2 °F - 65.8 °F 83% 29.99 in 10.0 mi SSE 9.2 mph - N/A   Unknown
11:35 PM 71.1 °F - 65.8 °F 84% 29.99 in 10.0 mi SSE 6.9 mph - N/A   Unknown
11:55 PM 70.9 °F - 66.2 °F 85% 29.99 in 10.0 mi SSE 6.9 mph - N/A   Unknown